DMSP 5D-2 F13 DEB, 40436

Orbit data source: Space-Track

DMSP 5D-2 F13 DEB, 40436 is space debris in SSO originally from a launch on Fri, 24 Mar 1995 UTC launched from the Air Force Western Test Range (AFWTR). Debris objects in space refer to the collection of defunct objects orbiting the Earth. Examples of debris include non-operational satellites, rocket bodies, and fragments generated from explosions, collisions, or faulty payload assembly.

Loading next visibility...
Identifier
40436, 1995-015AN
Orbit
SSO
Country
Flag of USUS
Related business
Manufacturer
Unknown
Mission
Spacecraft
Bus & Motor
Unknown
Mass
Unknown
Launch date (UTC)
1995-03-24 (31 years ago)
Launch vehicle
Unknown
Launch site
Air Force Western Test Range (AFWTR)
Object type
Payload
Rocket body
Debris
Shape & HBR
Unknown shape, 0.1 m
Radar Cross Section
Small (<0.1 m²)

Expand to show TLE details & history
Last TLE update: 15 hours ago

TLE from 15 hours ago
0 DMSP 5D-2 F13 DEB
1 40436U 95015AN  26119.19567802  .00000449  00000-0  45179-3 0  9990
2 40436  98.8634 201.5856 0227980 256.8739 100.6880 13.71617206557567
Epoch: 2026-04-29T04:41Z
TLE epoch observation values (Epoch: 2026-04-29T04:41:46.580Z)
Latitude
-0.00003°
Longitude
-86.0186°
Altitude
1,031.466 km
Speed
7.319 km/s
True Right ascension
13h 26m 20s
True Declination
0° 00' 00"
Sunlit
Object was in full shadow at epoch
Visualization orbit readout
Latitude
Unknown
Longitude
Unknown
Altitude
Unknown
Speed
Unknown
Apparent Right ascension
Unknown
Apparent Declination
Unknown
Sunlit
N/A
Visualization observer readout
Local Sidereal Time
02:43:57
Azimuth
Unknown
Elevation
Unknown
Doppler factor
Unknown
Orbital elements
Apogee altitude
1,159.001 km
Perigee altitude
822.998 km
Semi-major axis
7,369.137 km
Eccentricity
0.0228
Inclination
98.8634°
RAAN
201.5856°
Arg. of periapsis
256.8739°
True anomaly
103.24079°
Mean anomaly
100.688°
Eccentric anomaly
101.96585°
Mean motion
3.43098 °/min
Orbital period
104.93 mins
BSTAR
0.00045179

Documentation

Showing up to 5 results
|